Regional Weather Roundup
Issued by NWS

Home | Current Version | Previous Version | Graphics & Text | Print | Product List | Glossary On
Versions: 1 2 3 4 5 6 7 8 9 10 11 12 13 14 15 16 17 18 19 20 21 22 23 24 25 26 27 28 29 30 31 32 33 34 35 36 37 38 39 40 41 42 43 44 45 46 47 48 49 50
000
ASUS43 KLOT 241910
RWRIL

ILLINOIS REGIONAL WEATHER ROUNDUP
NATIONAL WEATHER SERVICE CHICAGO/ROMEOVILLE IL
200 PM CDT THU APR 24 2014

NOTE: "FAIR" INDICATES FEW OR NO CLOUDS BELOW 12,000 FEET WITH NO
SIGNIFICANT WEATHER AND/OR OBSTRUCTIONS TO VISIBILITY.

* THESE STATIONS ARE NOT UNDER NWS QUALITY CONTROL. THEY ALSO MAY NOT
  REPORT WEATHER SUCH AS PRECIPITATION OR FOG.

ILZ001-002-007-009-015-016-024-242000-
NORTHWEST ILLINOIS

CITY           SKY/WX    TMP DP  RH WIND       PRES   REMARKS
MOLINE         CLOUDY    59  46  62 S13G20    29.74F
STERLING*      CLOUDY    54  45  71 CALM      29.79S
SAVANNA*       LGT RAIN  57  46  65 SE12      29.76F
$$

ILZ003-004-008-010-011-017-018-242000-
NORTH CENTRAL ILLINOIS

CITY           SKY/WX    TMP DP  RH WIND       PRES   REMARKS
ROCKFORD       LGT RAIN  58  41  53 S23G30    29.81S
FREEPORT*      RAIN      51  46  82 S14G20    29.82R
ROCHELLE*      CLOUDY    64  34  33 SE25G37   29.76F
DE KALB*       CLOUDY    61  37  41 SE30G40   29.80F
PERU*          CLOUDY    67  36  31 SE25G37   29.76F
$$

ILZ005-006-012>014-019>023-242000-
NORTHEAST ILLINOIS

CITY           SKY/WX    TMP DP  RH WIND       PRES   REMARKS
CHICAGO-OHARE  CLOUDY    61  32  33 S23       29.84F
CHICAGO-MIDWAY CLOUDY    61  33  35 SE18G31   29.86F
AURORA         CLOUDY    62  38  40 SE24G33   29.82F
LANSING*       CLOUDY    61  31  32 SE16G23   29.88F
JOLIET*        PTSUNNY   64  33  32 SE18G24   29.84F
WAUKEGAN       PTSUNNY   53  33  46 SE14      29.85F
DUPAGE AIRPORT CLOUDY    60  35  39 SE23      29.82F
KANKAKEE*      PTSUNNY   64  37  36 SE20G25   29.87F
WHEELING       PTSUNNY   61  33  35 S17G28    29.85F
MORRIS*        PTSUNNY   67  27  22 SE22G29   29.81F
ROMEOVILLE*    CLOUDY    63  32  31 S25G31    29.83F
NORTHERLY ISL    N/A     53  40  61 SE15        N/A
$$

LMZ740>746-242000-
SOUTHERN LAKE MICHIGAN

STATION/POSITION SKY/WX   TEMP    WIND        PRES    VSBY  WAVE
                          AIR SEA DIR/SP/G                  HT/PER
                          (F)     (DEG/KT/KT) (MB)    (MI)  (FT/S)
WAUKEGAN HARBOR            44     120/ 19/ 24 1012.2F
HARRISON CRIB              52     140/ 22/ 25   N/A
BURNHAM HARBOR             54     130/ 12/ 17   N/A
CALUMET HARBOR             59     140/ 16/ 24 1012.2F
MICHIGAN CITY              58     110/ 17/ 24   N/A
$$

ILZ025>027-034>036-040-047-049-050-058-095>099-242000-
WEST-CENTRAL ILLINOIS

CITY           SKY/WX    TMP DP  RH WIND       PRES   REMARKS
QUINCY         LGT RAIN  59  50  72 SW3       29.73F
GALESBURG*     RAIN      58  49  70 SE5       29.74F
MACOMB*        CLOUDY    64  43  47 S8        29.75F
JACKSONVILLE*  PTSUNNY   73  42  33 S15G25    29.74F
PITTSFIELD*    CLOUDY    71  40  33 S10       29.72F
$$

ILZ028>032-037-038-041>044-048-051>054-059>061-242000-
CENTRAL ILLINOIS

CITY           SKY/WX    TMP DP  RH WIND       PRES   REMARKS
PONTIAC        PTSUNNY   70  34  26 SE21G30   29.81F
BLOOMINGTON    PTSUNNY   72  38  29 S25G31    29.79F
DECATUR        PTSUNNY   71  40  32 SE23G31   29.80F
PEORIA         CLOUDY    71  39  31 S18G25    29.76F
LACON*         CLOUDY    68  39  35 SE20G26   29.74F
LINCOLN*       MOSUNNY   75  38  26 S21G29    29.73F
SPRINGFIELD    PTSUNNY   75  40  28 S18G31    29.75F
TAYLORVILLE    PTSUNNY   72  41  33 S24       29.75F
$$

ILZ033-039-045-046-055>057-062-063-242000-
EAST-CENTRAL ILLINOIS

CITY           SKY/WX    TMP DP  RH WIND       PRES   REMARKS
CHAMPAIGN      PTSUNNY   71  35  26 SE20G29   29.83F
RANTOUL*       PTSUNNY   70  32  24 SE18      29.84F
MATTOON        PTSUNNY   68  39  34 SE18G25   29.83F
PARIS*         MOSUNNY   69  37  31 SE16G25   29.87F
$$

ILZ079-100>102-242000-
SOUTHWEST ILLINOIS

CITY           SKY/WX    TMP DP  RH WIND       PRES   REMARKS
ALTON          PTSUNNY   73  45  35 S21       29.76F
BELLEVILLE     PTSUNNY   76  47  35 S16G23    29.75F
CAHOKIA*       PTSUNNY   76  46  34 SE14G21   29.73F
SPARTA*        MOSUNNY   75  45  33 S17G24    29.79F
$$

ILZ064>066-069>071-074>076-080>082-084>086-088>090-092>094-242000-
SOUTH-CENTRAL ILLINOIS

CITY           SKY/WX    TMP DP  RH WIND       PRES   REMARKS
CARBONDALE     MOSUNNY   77  45  32 S20G25    29.81F
CAIRO*         PTSUNNY   79  43  27 S10G21    29.84F
MARION         MOSUNNY   77  43  29 SW17      29.82F
MT. VERNON     PTSUNNY  N/A N/A N/A S12G21    29.83F
CENTRALIA*     MOSUNNY   75  41  29 SE14G22   29.80F
SALEM*         PTSUNNY   74  44  34 S13G18    29.82F
METROPOLIS*    PTSUNNY   77  35  21 S10G18    29.85F
$$

ILZ067-068-072-073-078-083-087-091-242000-
SOUTHEAST ILLINOIS

CITY           SKY/WX    TMP DP  RH WIND       PRES   REMARKS
FLORA*         MOSUNNY   74  41  30 SE15      29.84F
FAIRFIELD*     MOSUNNY   75  46  35 S15       29.84F
HARRISBURG*    MOSUNNY   76  40  27 S15       29.86F
ROBINSON*      PTSUNNY   73  42  32 S13       29.88F
CARMI*         MOSUNNY   76  43  31 S12G20    29.86S
$$

ABBREVIATIONS USED IN REMARKS
   TC - TEMPERATURE IN CELSIUS
  WCI - WIND CHILL INDEX
   HX - HEAT INDEX
  VSB - VISIBILITY
$$




USA.gov is the U.S. government's official web portal to all federal, state and local government web resources and services.